This demonstration page uses our WeatherBlox Daily Observations layout. Learn more.

Left ArrowRight Arrow

30.21309, -93.2044

Hourly Observations for February 9, 2022

Temp ( °F °C ) Dew Point ( °F °C ) Humidity (%) Winds ( mph kmh ) Pressure ( in mb ) Visibility ( mi km ) Precip ( " mm )
12:15 am 00:15 Clear 42 5.7 37 2.7 81 81 SW 3 6 30.19 1022 10 16 0.00 0.00
12:35 am 00:35 Clear 40 4.4 37 2.9 90 90 Calm 30.19 1022 10 16 0.00 0.00
12:55 am 00:55 Clear 43 6.3 38 3.3 81 81 Calm 30.19 1022 10 16 0.00 0.00
1:15 am 01:15 Clear 44 6.8 38 3.4 79 79 W 5 7 30.19 1022 10 16 0.00 0.00
1:35 am 01:35 Clear 42 5.5 37 3 84 84 W 3 6 30.19 1022 10 16 0.00 0.00
1:55 am 01:55 Clear 44 6.5 38 3.2 80 80 W 5 7 30.18 1022 10 16 0.00 0.00
2:15 am 02:15 Clear 40 4.6 37 2.5 86 86 W 6 9 30.18 1022 10 16 0.00 0.00
2:35 am 02:35 Clear 45 7 37 2.7 74 74 Calm 30.18 1022 10 16 0.00 0.00
2:55 am 02:55 Clear 41 5 37 2.8 86 86 Calm 30.17 1022 10 16 0.00 0.00
3:15 am 03:15 Mostly Cloudy with Mist and Fog 37 3 34 1 87 87 Calm 30.16 1021 1 2 0.00 0.00
3:35 am 03:35 Clear 38 3.1 36 2.3 95 95 Calm 30.16 1021 10 16 0.00 0.00
3:55 am 03:55 Clear 39 3.9 37 2.6 91 91 Calm 30.16 1021 10 16 0.00 0.00
4:15 am 04:15 Clear with Mist and Fog 35 1.5 33 0.5 93 93 Calm 30.15 1021 4 6 0.00 0.00
4:35 am 04:35 Clear 37 2.5 35 1.6 94 94 Calm 30.15 1021 10 16 0.00 0.00
4:55 am 04:55 Clear with Mist and Fog 37 2.9 36 2.1 95 95 Calm 30.15 1021 4 6 0.00 0.00
5:15 am 05:15 Clear with Mist and Fog 36 2.1 34 1.3 95 95 Calm 30.16 1021 2 3 0.00 0.00
5:35 am 05:35 Clear with Mist and Fog 37 2.5 35 1.8 95 95 Calm 30.16 1021 3 5 0.00 0.00
6:00 am 06:00 Mostly Clear 36 2 34 1 93 93 Calm 30.17 1022 10 16 0.00 0.00
6:51 am 06:51 Mostly Cloudy with Fog 34 1 34 1 100 100 Calm 30.18 1022 0 0 0.00 0.00
7:50 am 07:50 Mostly Cloudy with Fog 36 2 34 1 93 93 Calm 30.19 1022 1 1 0.00 0.00
8:50 am 08:50 Partly Cloudy with Mist and Fog 46 8 45 7 93 93 Calm 33.02 1118 7 11 0.00 0.00
9:53 am 09:53 Mostly Sunny 55 13 43 6 63 63 W 6 9 30.21 1023 10 16 0.00 0.00
10:55 am 10:55 Mostly Sunny 61 16 39 4 45 45 W 8 13 30.20 1023 10 16 0.00 0.00
11:53 am 11:53 Mostly Sunny 63 17 34 1 34 34 WSW 6 9 30.18 1022 10 16 0.00 0.00
12:45 pm 12:45 Mostly Sunny 63 17 37 3 39 39 WSW 6 9 30.16 1021 10 16 0.00 0.00
1:50 pm 13:50 Mostly Sunny 66 19 34 1 30 30 WNW 7 11 30.13 1020 10 16 0.00 0.00
2:51 pm 14:51 Mostly Sunny 66 19 36 2 32 32 SSW 10 17 30.10 1019 10 16 0.00 0.00
3:50 pm 15:50 Mostly Sunny 66 19 34 1 30 30 SSW 12 19 30.09 1019 10 16 0.00 0.00
4:45 pm 16:45 Mostly Sunny 64 18 37 3 37 37 SSW 13 20 30.09 1019 10 16 0.00 0.00
5:51 pm 17:51 Mostly Sunny 57 14 36 2 44 44 S 9 15 30.10 1019 10 16 0.00 0.00
6:45 pm 18:45 Mostly Clear 54 12 39 4 58 58 SSW 8 13 30.10 1019 10 16 0.00 0.00
7:45 pm 19:45 Mostly Clear 46 8 39 4 76 76 Calm 30.11 1020 10 16 0.00 0.00
8:45 pm 20:45 Mostly Clear 46 8 41 5 82 82 Calm 30.11 1020 10 16 0.00 0.00
9:45 pm 21:45 Mostly Clear 45 7 43 6 93 93 Calm 30.12 1020 10 16 0.00 0.00
10:15 pm 22:15 Mostly Cloudy with Mist and Fog 43 6.2 42 5.5 95 95 S 3 6 30.13 1020 2 3 0.00 0.00
10:35 pm 22:35 Clear with Mist and Fog 41 5.1 40 4.3 95 95 Calm 30.13 1020 7 11 0.00 0.00
10:55 pm 22:55 Clear 39 4 38 3.2 95 95 S 5 7 30.12 1020 10 16 0.00 0.00
11:15 pm 23:15 Clear 38 3.2 36 2.4 95 95 S 5 7 30.12 1020 7 11 0.00 0.00
11:35 pm 23:35 Clear with Mist and Fog 40 4.2 38 3.5 95 95 S 5 7 30.12 1020 5 8 0.00 0.00
11:55 pm 23:55 Mostly Cloudy with Fog 39 3.7 37 3 95 95 Calm 30.12 1020 0 0 0.00 0.00

Powered by AerisWeather